Retour au catalogue

STARLINK-36528

ActifCommunicationsVLEO
NORAD 67458·PAYLOAD·🇺🇸 United States

Lancé Jan 14, 2026 depuis Cape Canaveral Space Force Station

Loading…

Prochains Passages (prochaines 24 heures)

TLE

FraisSource: CelesTrak SupGP

Époque: Sep 15, 2026, 03:51 UTC

1 67458C 26008P   26258.16090278 -.00069519  00000+0 -25186-2 0  2585
2 67458  42.9997 214.8001 0001341 274.2736  92.2050 15.27604710    10

Suivez STARLINK-36528 en temps réel avec AllMySat

Download on the App Store